Location: ?????? ??????
(44.3742°N, 135.2221°E)
Time: 14:27:21
(UTC+00:00)

DELTA 2 R/B (1) - Pass Details

Date: 19 May 2025
Orbit: 787 x 800 km, 39.6° (Epoch: 19 June)

Event Time Altitude Azimuth Distance (km) Brightness Sun altitude
Rises 12:03:45 0° 236° (SW) 3,266 6.9 -14.7°
Reaches altitude 10° 12:06:22 10° 228° (SW) 2,340 6.0 -15.0°
Maximum altitude 12:11:26 38° 162° (SSE) 1,193 4.0 -15.6°
Enters shadow 12:14:46 19° 106° (ESE) 1,791 4.9 -16.0°
